Location: Quedlinburg
(51.7921°N, 11.1414°E)
Time: 13:00:35
(UTC+02:00)

RS-15 - Pass Details

Date: 15 March 2026
Orbit: 1893 x 2152 km, 64.8° (Epoch: 22 April)

Event Time Altitude Azimuth Distance (km) Brightness Sun altitude
Rises 01:44:11 0° 294° (WNW) 5,320 10.3 -37.7°
Reaches altitude 10° 01:47:42 10° 301° (WNW) 4,346 9.9 -37.4°
Maximum altitude 01:58:21 45° 13° (NNE) 2,542 8.8 -36.7°
Drops below altitude 10° 02:09:28 10° 85° (E) 4,536 10.3 -35.8°
Sets 02:13:13 0° 92° (E) 5,570 10.8 -35.4°
